{"data":{"norad_id":56727,"epoch":"2026-09-19T19:20:41.050752Z","epoch_age_seconds":75512,"freshness":"FRESH","line1":"1 56727U 23068T   26262.80603068  .00000268  00000+0  34283-4 0  9994","line2":"2 56727  86.1918 283.9051 0002568  90.3509 269.8005 14.77165876180356","mean_motion":14.77165876,"eccentricity":0.0002568,"inclination_deg":86.1918,"raan_deg":283.9051,"arg_perigee_deg":90.3509,"mean_anomaly_deg":269.8005,"bstar":3.4283e-5,"rev_number":18035,"period_min":97.483974101768,"perigee_km":636.48257010667,"apogee_km":640.0862041311,"semimajor_km":7016.4213871189,"source":"CELESTRAK","updated_at":"2026-09-20T09:00:36.357401Z"}}